Location: Deutsch Reichenau
(48.6167°N, 14.0667°E)
Time: 13:55:44
(UTC+00:00)

Daily predictions for brighter satellites

Satellite Brightness Start Highest point End
(mag) Time Altitude Azimuth Time Altitude Azimuth Time Altitude Azimuth
Cosmos 2074 Rocket 4.4 18:01:07 10° N 18:07:07 44° ENE 18:13:05 10° SE
COSMOS 2455 4.2 18:02:32 10° NNW 18:07:31 26° NNE 18:12:30 10° E
Cosmos 2369 Rocket 2.2 18:02:40 10° NNW 18:08:24 78° ENE 18:14:03 10° SSE
IRS-1A Rocket 4.4 18:05:52 10° SSE 18:11:32 69° ENE 18:17:21 10° NNW
SPOT 3 Rocket 4.3 18:07:10 10° SE 18:11:49 34° ENE 18:16:28 10° N
STARLINK-1243 4.5 18:09:33 10° W 18:13:34 47° N 18:17:36 10° ENE
Cosmos 1758 Rocket 4.0 18:10:29 10° N 18:14:38 42° ENE 18:18:43 10° SE
Abrixas rocket 1.9 18:14:31 10° W 18:17:29 81° SSE 18:20:27 10° E
Cosmos 1992 Rocket 4.0 18:15:33 10° NNW 18:20:48 90° ENE 18:26:00 10° SSE
Cosmos 1437 3.1 18:19:11 10° N 18:22:05 40° ENE 18:24:57 10° SSE
Cosmos 1953 Rocket 4.5 18:18:06 10° N 18:22:06 31° ENE 18:26:04 10° SE
Cosmos 1953 2.4 18:18:21 10° S 18:22:13 55° E 18:26:09 10° NNE
Cosmos 2228 3.9 18:19:51 10° SSE 18:23:31 28° E 18:27:14 10° NNE
Cosmos 1818 4.0 18:20:49 10° S 18:25:48 38° ESE 18:30:50 10° NE
Cosmos 1606 Rocket 4.3 18:21:53 10° SSE 18:25:49 32° E 18:29:48 10° NNE
Cosmos 2263 4.2 18:22:44 10° NNW 18:28:23 81° ENE 18:34:00 10° SSE
Cosmos 1908 4.3 18:25:17 10° SE 18:28:25 24° E 18:31:35 10° NE
Meteor 2-15 Rocket 4.4 18:25:48 10° S 18:31:53 85° E 18:37:59 10° N
Cosmos 1470 3.6 18:28:38 10° SSW 18:32:27 54° WNW 18:36:19 10° N
ERBS 4.5 18:31:22 10° NW 18:33:57 20° N 18:36:31 10° NE
SL-08 RB Rocket 3.8 18:29:42 10° SSE 18:34:10 58° ENE 18:38:42 10° N
Cosmos 1943 3.3 18:28:50 10° S 18:34:20 55° ESE 18:39:53 10° NE
Aureole 2 Rocket 3.7 18:33:38 10° NW 18:36:57 40° WSW 18:40:10 10° S
CZ-2C R/B 2.9 18:33:51 10° SSE 18:38:45 89° WSW 18:43:33 10° NNW
BREEZE-M DEB (TANK) 2.2 18:33:22 10° WSW 18:39:03 59° SSE 18:41:06 14° E
Cosmos 1461 4.0 18:35:53 10° NNW 18:40:01 35° NE 18:43:27 14° ESE
CZ-4C R/B 4.4 18:38:28 10° NW 18:43:19 23° N 18:48:49 10° ENE
H-2A R/B 2.4 18:43:22 10° S 18:48:34 68° WSW 18:53:39 10° NNW
NOSS 3-4 (A) 3.9 18:45:45 10° NW 18:52:38 71° NE 18:58:54 16° SE
NOSS 3-4 (C) 3.9 18:45:52 10° NW 18:52:44 71° NE 18:58:59 16° SE
Cosmos 1656 Rocket 3.7 18:48:40 10° NNW 18:54:23 86° ENE 18:59:39 12° SSE
CZ-2C R/B 3.0 18:52:30 10° NNE 18:57:21 39° E 19:02:12 10° SSE
SL-16 R/B 4.2 18:52:54 10° WSW 18:57:54 31° NW 19:02:56 10° NNE
STARLINK-1228 3.5 18:56:06 10° WNW 18:58:53 42° NNE 19:00:22 22° ENE
Resurs 1-3 3.6 18:55:38 12° SSE 18:59:35 63° ENE 19:03:57 10° N
Aureole 1 Rocket 4.3 18:53:02 10° S 19:00:23 51° ESE 19:06:16 10° NNE
MetOp-A 4.1 18:56:55 10° SSE 19:02:15 78° ENE 19:07:39 10° NNW
NOSS 3-3 (A) 4.1 18:56:34 10° SW 19:02:30 82° NW 19:09:17 10° NE
NOSS 3-3 (C) 4.1 18:56:40 10° SW 19:02:36 82° NW 19:09:22 10° NE
Cosmos 1726 2.4 18:59:06 10° SSW 19:02:50 70° WNW 19:06:35 10° N
Cosmos 2251 Rocket 4.2 18:57:48 10° SW 19:03:06 61° WNW 19:08:28 10° NNE
STARLINK-1239 4.5 18:59:37 10° WNW 19:03:37 45° N 19:06:49 15° ENE
ARGOS 3.7 18:59:02 10° S 19:04:21 61° WSW 19:09:42 10° NNW
Cosmos 2184 Rocket 4.2 18:59:47 10° NNW 19:06:06 77° W 19:12:18 10° S
ISS -1.1 19:06:16 10° WSW 19:07:44 12° SW 19:09:12 10° SSW
SJ-6B 3.6 19:03:50 10° S 19:07:51 55° W 19:11:57 10° NNW
STARLINK-60 4.0 19:05:10 10° SSW 19:07:54 28° SE 19:07:54 28° SE
STARLINK-1240 4.5 19:04:38 10° WNW 19:08:38 45° N 19:11:37 17° ENE
STARLINK-1233 3.7 19:06:41 10° WNW 19:09:43 43° NNE 19:11:11 25° ENE
STARLINK-1212 3.7 19:07:09 10° WNW 19:10:10 43° NNE 19:11:36 25° ENE
STARLINK-1105 3.7 19:07:36 10° WNW 19:10:38 44° NNE 19:12:03 25° ENE
STARLINK-1206 3.7 19:08:05 10° WNW 19:11:06 43° NNE 19:12:28 26° ENE
BREEZE M DEB (TANK) 3.9 19:08:22 10° S 19:11:20 26° ESE 19:17:46 10° ENE
STARLINK-1247 3.7 19:08:32 10° WNW 19:11:34 44° NNE 19:12:54 26° ENE
Meteor 2-10 4.5 19:06:20 10° SSW 19:11:47 72° WNW 19:17:27 10° N
STARLINK-1227 3.7 19:08:57 10° WNW 19:11:59 44° NNE 19:13:21 26° ENE
STARLINK-1218 3.7 19:09:27 10° WNW 19:12:28 44° NNE 19:13:47 27° ENE
STARLINK-1226 3.7 19:09:53 10° WNW 19:12:55 44° NNE 19:14:12 27° ENE
USA 186 3.8 19:10:01 10° SSW 19:12:58 28° W 19:15:50 10° NW
STARLINK-1254 3.7 19:10:18 10° WNW 19:13:20 44° NNE 19:14:38 27° ENE
STARLINK-1216 4.4 19:09:38 10° WNW 19:13:39 46° N 19:16:23 19° ENE
STARLINK-1215 3.6 19:10:48 10° WNW 19:13:49 44° NNE 19:15:04 28° ENE
STARLINK-1231 3.6 19:11:15 10° WNW 19:14:16 44° NNE 19:15:30 28° ENE
STARLINK-67 2.5 19:11:43 10° WNW 19:14:16 62° NNE 19:14:43 50° ENE
DMSP B5D2-2 4.0 19:09:26 10° NNE 19:14:39 64° ESE 19:19:50 10° S
STARLINK-1232 3.6 19:12:09 10° WNW 19:15:11 45° NNE 19:16:22 29° ENE
STARLINK-1217 3.6 19:12:36 10° WNW 19:15:37 45° NNE 19:16:48 29° ENE
STARLINK-1208 3.6 19:13:00 10° WNW 19:16:03 45° NNE 19:17:15 29° ENE
STARLINK-1229 3.6 19:13:29 10° WNW 19:16:31 45° NNE 19:17:39 30° ENE
STARLINK-1271 3.6 19:13:56 10° WNW 19:16:59 46° NNE 19:18:06 30° ENE
STARLINK-1234 3.3 19:14:03 10° WNW 19:17:03 51° NNE 19:17:59 35° ENE
Terra 3.7 19:16:09 13° ENE 19:17:17 14° NE 19:19:43 10° NNE
STARLINK-1270 3.6 19:14:25 10° WNW 19:17:27 46° NNE 19:18:33 30° ENE
Cosmos 1980 Rocket 4.5 19:15:50 10° N 19:17:28 11° NNE 19:19:05 10° NE
STARLINK-1154 3.6 19:14:50 10° WNW 19:17:52 46° NNE 19:18:57 31° ENE
STARLINK-1237 4.4 19:14:37 10° WNW 19:18:38 46° N 19:21:09 20° ENE
STARLINK-1197 3.6 19:15:45 10° WNW 19:18:47 46° NNE 19:19:50 32° ENE
STARLINK-1189 3.6 19:16:12 10° WNW 19:19:14 46° NNE 19:20:16 32° ENE
STARLINK-1198 3.6 19:16:38 10° WNW 19:19:41 47° NNE 19:20:42 32° ENE
STARLINK-1209 3.1 19:16:57 10° WNW 19:19:53 54° NNE 19:20:37 40° ENE
STARLINK-1188 3.5 19:17:06 10° WNW 19:20:09 47° NNE 19:21:08 33° ENE
Cosmos 1603 4.3 19:14:38 10° SW 19:20:11 59° WNW 19:25:45 10° NNE
STARLINK-1235 3.3 19:17:45 10° WNW 19:20:51 53° NNE 19:21:46 37° ENE
Cosmos 2058 Rocket 3.1 19:16:36 10° S 19:21:03 61° E 19:25:30 10° NNE
STARLINK-1187 3.4 19:18:09 10° WNW 19:21:15 50° NNE 19:22:12 35° ENE
STARLINK-1199 3.5 19:19:03 10° WNW 19:22:07 48° NNE 19:23:03 34° ENE
MOS 1 Rocket 3.6 19:17:07 10° NNE 19:22:29 69° E 19:27:54 10° S
STARLINK-1191 3.5 19:19:30 10° WNW 19:22:34 48° NNE 19:23:29 35° ENE
STARLINK-1210 3.5 19:19:57 10° WNW 19:23:01 48° NNE 19:23:55 35° ENE
STARLINK-1221 3.5 19:20:24 10° WNW 19:23:29 48° NNE 19:24:21 36° ENE
STARLINK-1202 4.4 19:19:36 10° WNW 19:23:38 47° N 19:25:55 23° ENE
USA 234 3.5 19:17:28 10° ENE 19:23:39 42° SE 19:29:47 10° SSW
STARLINK-1219 3.5 19:20:50 10° WNW 19:23:55 49° NNE 19:24:47 36° ENE
STARLINK-1222 3.5 19:21:18 10° WNW 19:24:23 49° NNE 19:25:13 37° ENE
Resurs 01 Rocket 1.5 19:21:42 23° SSE 19:24:27 79° ENE 19:28:53 10° NNW
STARLINK-1211 3.5 19:21:46 10° WNW 19:24:50 49° NNE 19:25:39 37° ENE
ATLAS 2AS CENTAUR R/B 2.9 19:17:27 10° NW 19:25:08 80° SW 19:29:59 22° SSE
STARLINK-1214 3.5 19:22:12 10° WNW 19:25:16 49° NNE 19:26:05 37° ENE
STARLINK-1245 3.5 19:22:41 10° WNW 19:25:44 49° NNE 19:26:30 38° ENE
STARLINK-1238 3.5 19:23:05 10° WNW 19:26:11 50° NNE 19:26:57 38° ENE
STARLINK-1205 3.4 19:24:01 10° WNW 19:27:05 50° NNE 19:27:48 40° ENE
Cosmos 1892 4.5 19:24:19 10° NNE 19:26:53 18° ENE 19:26:53 18° ENE
STARLINK-1204 3.4 19:24:29 10° WNW 19:27:33 50° NNE 19:28:14 40° ENE
STARLINK-1203 4.3 19:23:48 10° WNW 19:27:53 49° N 19:30:00 25° ENE
Cosmos 2154 Rocket 4.1 19:21:58 10° N 19:28:22 81° W 19:34:41 10° S
Cosmos 2181 Rocket 4.4 19:27:29 24° SE 19:30:37 41° E 19:36:22 10° NNE
Cosmos 1190 Rocket 4.0 19:25:44 10° S 19:30:58 63° ESE 19:36:12 10° NNE
Iridium 4 Rocket 4.1 19:27:24 10° NNE 19:30:54 25° ENE 19:30:54 25° ENE
Cosmos 962 Rocket 4.4 19:25:35 10° N 19:31:46 71° ENE 19:35:47 23° SSE
Nadezhda 1 Rocket 4.1 19:25:37 10° S 19:32:01 83° W 19:38:25 10° N
Cosmos 1140 Rocket 3.5 19:27:15 10° S 19:32:18 56° ESE 19:37:23 10° NNE
SL-4 R/B 1.4 19:29:51 10° WSW 19:33:13 67° SSE 19:33:43 56° ESE
STARLINK-1246 4.3 19:29:35 10° WNW 19:33:38 49° N 19:35:30 28° ENE
Spot 2 Rocket 3.7 19:31:32 31° SE 19:33:43 54° ENE 19:38:42 10° N
Cosmos 1726 Rocket 3.9 19:30:05 10° SSW 19:34:27 66° WNW 19:38:54 10° N
SL-8 Rocket 4.2 19:29:30 10° N 19:35:41 53° ENE 19:38:40 30° SE
STARLINK-1201 3.4 19:32:39 10° WNW 19:35:52 54° NNE 19:36:24 47° ENE
Cosmos 1340 Rocket 2.7 19:32:48 15° S 19:36:11 84° E 19:40:14 10° NNE
ATLAS 5 CENTAUR R/B 1.6 19:34:14 10° SSW 19:38:16 50° ESE 19:42:47 10° NE
STARLINK-1224 4.3 19:34:35 10° WNW 19:38:38 50° N 19:40:16 31° ENE
SL-24 R/B - RUBIN 2 4.2 19:36:18 10° SSW 19:41:51 67° ESE 19:48:08 10° NE
STARLINK-1225 4.2 19:39:35 10° WNW 19:43:39 51° NNE 19:45:04 34° ENE
Cosmos 2366 rocket 4.2 19:41:17 10° N 19:47:17 51° ENE 19:49:25 36° SE
In-Cosmos 22 Rocket 4.5 19:42:43 10° N 19:48:28 54° ENE 19:50:20 38° SE
STARLINK-1230 4.2 19:44:34 10° WNW 19:48:39 52° NNE 19:49:51 38° ENE
Cosmos 614 Rocket 4.3 19:44:09 10° SSW 19:49:21 69° WNW 19:54:35 10° NNE
Cosmos 1300 2.5 19:50:48 67° ESE 19:50:54 68° E 19:54:43 10° NNE
Abrixas rocket 2.8 19:50:07 10° W 19:52:19 45° W 19:52:19 45° W
IGS 5A 3.6 19:53:17 52° E 19:53:34 54° ENE 19:57:39 10° N
STARLINK-1243 4.1 19:49:32 10° WNW 19:53:37 54° NNE 19:54:36 42° ENE
COSMOS 2455 2.8 19:48:12 10° NW 19:54:16 90° NE 19:56:39 39° SSE
Cosmos 1812 Rocket 4.2 19:56:43 38° ENE 19:56:43 38° ENE 20:00:05 10° NNE
Cosmos 921 Rocket 3.1 19:51:58 10° NNW 19:56:09 69° WSW 19:57:12 47° S
STARLINK-1236 4.0 19:54:32 10° WNW 19:58:38 56° NNE 19:59:26 47° ENE
Cosmos 676 Rocket 3.9 19:56:21 27° S 19:59:16 67° ESE 20:04:30 10° NNE
Cosmos 407 Rocket 3.8 19:55:36 10° SSW 20:00:43 66° WNW 20:05:51 10° NNE
ERS-1 Rocket 3.1 20:07:39 52° E 20:08:16 56° ENE 20:13:12 10° N
STARLINK-1269 3.9 20:04:31 10° WNW 20:08:38 60° NNE 20:09:00 57° NE
ATLAS CENTAUR R/B 3.4 20:08:16 10° NNW 20:10:51 16° NNE 20:11:25 16° NE
ERBS 3.5 20:07:44 10° NW 20:10:29 37° N 20:10:29 37° N
Meteor 2-1 Rocket 4.4 20:11:13 50° ESE 20:11:58 53° E 20:17:44 10° NNE
Landsat 7 3.7 20:11:37 64° SSE 20:12:23 86° ENE 20:17:10 10° NNW
STARLINK-1200 3.8 20:09:31 10° WNW 20:13:38 62° NNE 20:13:47 61° NNE
SPOT 1/Viking Rocket 3.4 20:14:31 59° SSE 20:15:31 81° ENE 20:20:47 10° NNW
Cosmos 220 Rocket 3.9 20:13:34 10° NNW 20:17:46 77° NE 20:17:46 77° NE
STARLINK-1192 3.8 20:14:29 10° WNW 20:18:33 65° NNE 20:18:33 65° NNE
Cosmos 1461 3.9 20:14:56 10° NW 20:19:13 41° WSW 20:19:51 39° SW
STARLINK-1244 3.9 20:19:29 10° WNW 20:23:20 65° N 20:23:20 65° N
Cosmos 1954 Rocket 4.0 20:21:02 29° SSW 20:23:50 83° WNW 20:29:05 10° NNE
SL-08 R/B 4.4 20:21:30 10° N 20:27:37 69° ENE 20:28:38 59° SE
STARLINK-1138 4.0 20:24:26 10° WNW 20:28:06 63° NNW 20:28:06 63° NNW
Cosmos 1821 Rocket 4.4 20:23:12 10° N 20:29:19 46° ENE 20:29:53 45° E
Meteor 2-10 Rocket 4.4 20:31:30 35° ENE 20:31:30 35° ENE 20:35:15 10° NNE
Cosmos 2151 4.0 20:29:21 10° N 20:32:13 36° NNE 20:32:13 36° NNE
STARLINK-1143 4.1 20:29:24 10° WNW 20:32:52 58° NW 20:32:52 58° NW
CZ-4C R/B 3.8 20:27:30 10° NW 20:33:46 38° NNE 20:37:07 27° ENE
Cosmos 1697 Rocket 3.4 20:29:38 10° NNW 20:34:58 40° NE 20:35:27 39° ENE
Cosmos 1076 Rocket 3.8 20:31:05 10° NNW 20:35:03 65° WNW 20:35:03 65° WNW
SPOT 5 2.8 20:36:47 64° N 20:36:47 64° N 20:40:29 10° NNW
CZ-2C R/B 4.2 20:33:00 10° N 20:37:35 33° WNW 20:42:09 10° SW
STARLINK-1241 4.3 20:34:24 10° WNW 20:37:41 53° NW 20:37:41 53° NW
STARLINK-1239 4.5 20:39:23 10° WNW 20:42:27 48° WNW 20:42:27 48° WNW
Cosmos 2058 3.7 20:40:51 10° NNW 20:44:18 49° WNW 20:44:18 49° WNW
SL-16 R/B 4.4 20:45:11 10° N 20:48:21 15° NNE 20:50:30 12° ENE
Cosmos 1763 Rocket 3.4 20:44:37 10° NNW 20:49:35 81° NNW 20:49:35 81° NNW
Cosmos 1814 Rocket 4.5 20:48:00 10° NNW 20:52:51 51° NE 20:52:51 51° NE
Cosmos 1408 4.5 20:50:17 10° N 20:52:06 28° N 20:52:06 28° N
Terra 2.1 20:55:02 65° N 20:55:02 65° N 20:59:07 10° NNW
Cosmos-2242 4.5 20:57:02 31° NNE 20:57:02 31° NNE 20:59:24 10° NNE
USA 32 4.0 20:50:41 10° N 20:55:38 79° NNW 20:55:38 79° NNW
RESURS DK-1 3.7 20:53:45 10° NNW 20:56:27 36° N 20:56:27 36° N
Cosmos 2322 Rocket 4.4 20:55:11 10° N 20:58:16 15° NNE 21:00:21 12° ENE
Cosmos 1455 4.4 21:03:41 21° N 21:03:41 21° N 21:05:05 10° N
Resurs 01 Rocket 4.3 20:59:36 10° WSW 21:01:31 13° W 21:03:26 10° WNW
Cosmos 1892 4.4 20:59:21 10° NNW 21:01:53 32° NW 21:01:53 32° NW
Cosmos 1980 Rocket 3.1 20:58:02 10° NNW 21:03:10 37° NE 21:03:10 37° NE
Cosmos 540 Rocket 3.9 21:00:04 10° NNW 21:04:25 55° NNE 21:04:25 55° NNE
USA 234 3.3 21:00:25 10° NE 21:06:57 75° NNW 21:13:28 10° WSW
Cosmos 1656 3.8 21:05:18 10° NNW 21:10:37 72° WNW 21:10:37 72° WNW
Cosmos 1850 Rocket 4.4 21:13:06 56° N 21:13:06 56° N 21:17:15 10° NNE
Cosmos 1825 4.4 21:14:52 10° NNW 21:16:32 25° NNW 21:16:32 25° NNW
ATLAS 5 CENTAUR R/B 3.4 21:19:12 10° W 21:23:07 31° NNW 21:27:33 10° NNE
Cosmos 841 Rocket 4.0 21:20:00 10° NNW 21:24:13 57° NW 21:24:13 57° NW
Cosmos 2278 4.1 21:20:43 10° NNW 21:25:34 56° NNE 21:25:34 56° NNE
Cosmos 2082 Rocket 3.9 21:33:29 21° NE 21:33:29 21° NE 21:35:32 10° NE
Mayak 0.9 21:29:02 10° NNE 21:30:35 22° NNE 21:30:35 22° NNE
ASTEX 1 4.4 21:39:12 46° NNW 21:39:12 46° NNW 21:42:43 10° N
Nadezhda 3 Rocket 4.2 21:43:48 64° W 21:43:50 64° WNW 21:50:07 10° N
COSMOS 2406 3.7 21:45:30 56° N 21:45:30 56° N 21:50:14 10° NNE
Cosmos 1833 Rocket 3.8 21:47:50 38° NE 21:47:50 38° NE 21:51:13 10° NNE
ATLAS CENTAUR R/B 3.9 21:46:32 10° NW 21:47:36 18° NW 21:47:36 18° NW
Cosmos 1697 Rocket 4.1 22:13:42 10° NW 22:17:11 32° WNW 22:17:11 32° WNW
CZ-4C R/B 2.9 22:15:53 10° NW 22:22:18 73° WNW 22:22:18 73° WNW
Terra 4.5 22:33:54 12° WNW 22:33:54 12° WNW 22:34:51 10° WNW
SL-16 R/B 3.2 22:28:14 10° NNW 22:32:20 42° N 22:32:20 42° N
Cosmos 2360 Rocket 3.6 22:34:59 10° NNW 22:39:34 31° NE 22:39:34 31° NE
Cosmos 2322 Rocket 3.3 22:38:09 10° NNW 22:42:08 41° N 22:42:08 41° N
Cosmos 1980 Rocket 3.7 22:42:01 10° NW 22:44:56 28° WNW 22:44:56 28° WNW
Cosmos 2333 Rocket 4.4 22:44:00 10° N 22:47:56 19° NE 22:49:56 16° ENE
USA 234 4.2 22:43:24 10° ENE 22:49:33 45° N 22:55:42 10° WNW
Mayak 1.8 23:06:40 10° NW 23:07:09 11° NW 23:07:09 11° NW
Cosmos 2082 Rocket 3.4 23:15:17 37° NNW 23:15:17 37° NNW 23:19:43 10° NNE
SL-16 R/B 3.8 23:29:17 31° ENE 23:30:10 33° ENE 23:35:36 10° N
Cosmos 2219 Rocket 3.6 23:34:48 10° NNW 23:39:50 32° NE 23:40:11 32° NE
COSMOS 2428 3.9 23:47:09 10° NNW 23:52:27 37° NE 23:52:47 37° ENE
